Starlink 5019

operational
NORAD ID: 55407 Int'l Des: 2023-014 Owner: SPXS Country: US Constellation: starlink
LEOCIRCULAR

About Starlink 5019

Description loading...

Live Position

Loading 3D Globe...

Upcoming Passes

Altitude History

Altitude vs Time

uPlot chart will show altitude changes over time

Two-Line Element Set

1 55407U 23014S 25347.57216638 .00000752 00000-0 70855-4 0 9993
2 55407 69.9995 281.6745 0002771 266.3707 93.7135 14.98323682159156
Epoch: Dec 13, 2025 • Age: 17 hours

Current Status

Altitude 577.4 km
Velocity 7.58 km/s
Sub-Earth Point 35.92°N, 94.21°W
Launch Date Jan 31, 2023
Age 2.8 years
Type internet

Technical Details

Classification Payload
Mass 305.00 kg
Dry Mass 290.00 kg
Total Mass 305.00 kg
Length 0.20 m
Diameter 2.80 m
Span 9.00 m
Shape Box + pan
Manufacturer SPXS
Bus Type Starlink
Phase Status In Orbit
Owner/State SPXS/US

Large Constellations

Loading constellations...